Location: Caltech
(34.1382°N, 118.1253°W)
Time: 05:15:40
(UTC-07:00)

Sapphire - Visible Passes

Search period start: 23 March 2017 00:00
Search period end: 02 April 2017 00:00
Orbit: 785 x 796 km, 67.1° (Epoch: 21 March)

Date Brightness Start Highest point End Pass type
(mag) Time Alt. Az. Time Alt. Az. Time Alt. Az.
23 Mar ? 20:17:31 10° NNW 20:22:58 78° ENE 20:27:10 17° SSE visible
23 Mar ? 22:04:31 10° W 22:05:37 11° WSW 22:06:43 10° WSW visible
24 Mar ? 19:46:57 10° NNW 19:52:17 55° ENE 19:57:36 10° SE visible
24 Mar ? 21:31:56 10° WNW 21:35:10 16° WSW 21:38:23 10° SW visible
25 Mar ? 21:00:29 10° NW 21:04:41 23° WSW 21:08:53 10° SSW visible
26 Mar ? 20:29:20 10° NW 20:34:10 33° WSW 20:38:58 10° S visible
27 Mar ? 19:58:25 10° NW 20:03:37 47° WSW 20:08:47 10° S visible
28 Mar ? 19:27:37 10° NNW 19:33:01 69° WSW 19:38:23 10° SSE visible
30 Mar ? 20:11:40 10° WNW 20:14:32 15° WSW 20:17:25 10° SW visible
31 Mar ? 19:40:03 10° WNW 19:44:03 21° WSW 19:48:03 10° SSW visible
